STARLINK-4040 (53151 NORAD) Tracking and Keplerian Element Data

This shows tracking and keplerian element data for the satellite.

Feedback or suggestion? Click here.




ElementValue
Catalog53151
NameSTARLINK-4040
Epoch Orbit1184
Epoch Day270.25001157
Epoch Year2022
RAAN58.0832
Inclination53.2166
Eccentricity0.0001441
Argument of Perigee50.1582
Mean Anonmoly279.4573
Mean Motion15.17075916
Decay Rate-0.01071577
L11 53151U 22083V 22270.25001157 -.01071577 00000+0 -57688-1 0 9998
L22 53151 53.2166 58.0832 0001441 50.1582 279.4573 15.17075916 11840

Live tracking and technical data element details for STARLINK-4040 (NORAD 53151). STARLINK-4040 can be tracked NOW for your location showing map with azimuth and elevation plus other details from your city location.

Track the satellite on the map from your city or location and see movement details for azimuth, elevation, latitude, longitude, range, height, and movement on the map or in text.







IsCatalogInMostPopularTable: catalog: 53151, numindb: 7
Update: records affected: 1



GetName: 53151 STARLINK-4040

Hit Count: updated at: Wed, 05 Oct 2022 08:40:05 GMT